Time,TemperatureF,DewpointF,PressureIn,WindDirection,WindDirectionDegrees,WindSpeedMPH,WindSpeedGustMPH,Humidity,HourlyPrecipIn,Conditions,Clouds,dailyrainin,SoftwareType,DateUTC
2013-01-19 00:12:00,-999.0,-99.9,30.29,SE,132,0.0,1.0,-999,-99.99,,,-99.99,,2013-01-19 09:12:00,
2013-01-19 00:23:00,-999.0,-99.9,30.29,SE,131,1.0,1.0,-999,-99.99,,,-99.99,,2013-01-19 09:23:00,
2013-01-19 00:53:00,-999.0,-99.9,30.30,SE,135,1.0,2.0,-999,-99.99,,,-99.99,,2013-01-19 09:53:00,
2013-01-19 01:02:00,-999.0,-99.9,30.30,SE,130,2.0,2.0,-999,-99.99,,,-99.99,,2013-01-19 10:02:00,
2013-01-19 01:13:00,-999.0,-99.9,30.30,ESE,107,2.0,2.0,-999,-99.99,,,-99.99,,2013-01-19 10:13:00,
2013-01-19 01:23:00,-999.0,-99.9,30.30,ESE,112,1.0,2.0,-999,-99.99,,,-99.99,,2013-01-19 10:23:00,
2013-01-19 01:43:00,32.0,-99.9,30.30,NE,37,-999.0,2.0,-999,-99.99,,,-99.99,,2013-01-19 10:43:00,
2013-01-19 01:53:00,-999.0,-99.9,30.30,WSW,237,0.0,1.0,-999,-99.99,,,-99.99,,2013-01-19 10:53:00,
2013-01-19 02:12:00,-999.0,-99.9,30.31,East,90,1.0,2.0,-999,-99.99,,,-99.99,,2013-01-19 11:12:00,
2013-01-19 02:48:00,33.0,-99.9,30.31,ESE,106,-999.0,1.0,-999,-99.99,,,-99.99,,2013-01-19 11:48:00,
2013-01-19 04:13:00,33.0,-99.9,30.31,NE,53,-999.0,1.0,-999,-99.99,,,-99.99,,2013-01-19 13:13:00,
2013-01-19 04:23:00,33.0,-99.9,30.31,ESE,106,0.0,1.0,-999,-99.99,,,-99.99,,2013-01-19 13:23:00,
2013-01-19 04:34:00,33.0,-99.9,30.31,SE,135,0.0,1.0,-999,-99.99,,,-99.99,,2013-01-19 13:34:00,
2013-01-19 04:43:00,32.0,-99.9,30.31,WNW,285,-999.0,3.0,-999,-99.99,,,-99.99,,2013-01-19 13:43:00,
2013-01-19 04:54:00,-999.0,-99.9,30.31,NW,325,2.0,4.0,-999,-99.99,,,-99.99,,2013-01-19 13:54:00,
2013-01-19 05:03:00,-999.0,-99.9,30.31,NW,326,3.0,4.0,-999,-99.99,,,-99.99,,2013-01-19 14:03:00,
2013-01-19 05:13:00,-999.0,-99.9,30.31,NNW,327,2.0,3.0,-999,-99.99,,,-99.99,,2013-01-19 14:13:00,
2013-01-19 05:23:00,-999.0,-99.9,30.31,NW,304,1.0,3.0,-999,-99.99,,,-99.99,,2013-01-19 14:23:00,
2013-01-19 05:34:00,32.0,-99.9,30.32,WNW,282,1.0,2.0,-999,-99.99,,,-99.99,,2013-01-19 14:34:00,
2013-01-19 05:43:00,-999.0,-99.9,30.32,WNW,288,1.0,3.0,-999,-99.99,,,-99.99,,2013-01-19 14:43:00,
2013-01-19 05:54:00,32.0,-99.9,30.31,West,276,3.0,4.0,-999,-99.99,,,-99.99,,2013-01-19 14:54:00,
2013-01-19 06:03:00,-999.0,-99.9,30.32,WNW,285,4.0,6.0,-999,-99.99,,,-99.99,,2013-01-19 15:03:00,
2013-01-19 06:13:00,-999.0,-99.9,30.32,WNW,294,4.0,7.0,-999,-99.99,,,-99.99,,2013-01-19 15:13:00,
2013-01-19 06:23:00,32.0,-99.9,30.32,WNW,300,3.0,4.0,-999,-99.99,,,-99.99,,2013-01-19 15:23:00,
2013-01-19 06:34:00,-999.0,-99.9,30.32,NNW,336,3.0,6.0,-999,-99.99,,,-99.99,,2013-01-19 15:34:00,
2013-01-19 06:43:00,-999.0,-99.9,30.33,North,3,1.0,3.0,-999,-99.99,,,-99.99,,2013-01-19 15:43:00,
2013-01-19 06:53:00,-999.0,-99.9,30.33,West,269,1.0,2.0,-999,-99.99,,,-99.99,,2013-01-19 15:53:00,
2013-01-19 07:03:00,-999.0,-99.9,30.33,SSW,200,0.0,1.0,-999,-99.99,,,-99.99,,2013-01-19 16:03:00,
2013-01-19 07:13:00,-999.0,-99.9,30.33,WNW,298,2.0,3.0,-999,-99.99,,,-99.99,,2013-01-19 16:13:00,
2013-01-19 07:23:00,32.0,-99.9,30.33,NNW,346,1.0,4.0,-999,-99.99,,,-99.99,,2013-01-19 16:23:00,
2013-01-19 07:33:00,-999.0,-99.9,30.33,WNW,301,3.0,4.0,-999,-99.99,,,-99.99,,2013-01-19 16:33:00,
2013-01-19 07:43:00,-999.0,-99.9,30.33,NW,316,0.0,4.0,-999,-99.99,,,-99.99,,2013-01-19 16:43:00,
2013-01-19 07:54:00,-999.0,-99.9,30.33,WNW,283,0.0,4.0,-999,-99.99,,,-99.99,,2013-01-19 16:54:00,
2013-01-19 08:03:00,-999.0,-99.9,30.33,West,278,1.0,3.0,-999,-99.99,,,-99.99,,2013-01-19 17:03:00,
2013-01-19 08:23:00,-999.0,-99.9,30.33,NW,315,4.0,6.0,-999,-99.99,,,-99.99,,2013-01-19 17:23:00,
2013-01-19 08:29:00,-999.0,-99.9,30.33,South,191,1.0,2.0,-999,-99.99,,,-99.99,,2013-01-19 17:29:00,
2013-01-19 08:38:00,31.0,-99.9,30.33,WNW,299,2.0,4.0,-999,-99.99,,,-99.99,,2013-01-19 17:38:00,
2013-01-19 08:50:00,-999.0,-99.9,30.34,NNW,330,2.0,4.0,-999,-99.99,,,-99.99,,2013-01-19 17:50:00,
2013-01-19 08:55:00,31.0,-99.9,30.34,WNW,290,1.0,2.0,-999,-99.99,,,-99.99,,2013-01-19 17:55:00,
2013-01-19 09:13:00,-999.0,-99.9,30.35,North,-999,0.0,1.0,-999,-99.99,,,-99.99,,2013-01-19 18:13:00,
2013-01-19 09:29:00,31.0,-99.9,30.35,WNW,299,0.0,1.0,-999,-99.99,,,-99.99,,2013-01-19 18:29:00,
2013-01-19 09:39:00,-999.0,-99.9,30.35,WNW,285,4.0,5.0,-999,-99.99,,,-99.99,,2013-01-19 18:39:00,
2013-01-19 09:48:00,-999.0,-99.9,30.35,NNW,341,1.0,5.0,-999,-99.99,,,-99.99,,2013-01-19 18:48:00,
2013-01-19 10:10:00,32.0,-99.9,30.35,NW,321,2.0,4.0,-999,-99.99,,,-99.99,,2013-01-19 19:10:00,
2013-01-19 10:32:00,32.0,-99.9,30.35,West,259,3.0,5.0,-999,-99.99,,,-99.99,,2013-01-19 19:32:00,
2013-01-19 10:50:00,32.0,-99.9,30.36,NW,309,-999.0,2.0,-999,-99.99,,,-99.99,,2013-01-19 19:50:00,
2013-01-19 10:59:00,32.0,-99.9,30.36,NE,44,-999.0,1.0,-999,-99.99,,,-99.99,,2013-01-19 19:59:00,
2013-01-19 11:12:00,32.0,-99.9,30.37,NE,47,2.0,5.0,-999,-99.99,,,-99.99,,2013-01-19 20:12:00,
2013-01-19 11:20:00,33.0,-99.9,30.37,East,99,1.0,2.0,-999,-99.99,,,-99.99,,2013-01-19 20:20:00,
2013-01-19 11:28:00,33.0,-99.9,30.38,SE,134,0.0,5.0,-999,-99.99,,,-99.99,,2013-01-19 20:28:00,
2013-01-19 11:40:00,33.0,-99.9,30.38,East,83,-999.0,3.0,-999,-99.99,,,-99.99,,2013-01-19 20:40:00,
2013-01-19 11:50:00,33.0,-99.9,30.37,ENE,71,4.0,6.0,-999,-99.99,,,-99.99,,2013-01-19 20:50:00,
2013-01-19 11:59:00,33.0,-99.9,30.37,East,86,3.0,5.0,-999,-99.99,,,-99.99,,2013-01-19 20:59:00,
2013-01-19 12:15:00,35.0,-99.9,30.38,ENE,77,2.0,3.0,-999,-99.99,,,-99.99,,2013-01-19 21:15:00,
2013-01-19 12:30:00,35.0,-99.9,30.37,SE,131,2.0,4.0,-999,-99.99,,,-99.99,,2013-01-19 21:30:00,
2013-01-19 13:02:00,35.0,-99.9,30.38,East,88,1.0,2.0,-999,-99.99,,,-99.99,,2013-01-19 22:02:00,
2013-01-19 13:16:00,36.0,-99.9,30.38,NW,312,0.0,2.0,-999,-99.99,,,-99.99,,2013-01-19 22:16:00,
2013-01-19 13:29:00,34.0,-99.9,30.38,South,171,2.0,3.0,-999,-99.99,,,-99.99,,2013-01-19 22:29:00,
2013-01-19 13:36:00,34.0,-99.9,30.38,SSW,211,1.0,3.0,-999,-99.99,,,-99.99,,2013-01-19 22:36:00,
2013-01-19 13:49:00,35.0,-99.9,30.37,South,184,2.0,9.0,-999,-99.99,,,-99.99,,2013-01-19 22:49:00,
2013-01-19 13:59:00,35.0,-99.9,30.37,SSE,168,4.0,9.0,-999,-99.99,,,-99.99,,2013-01-19 22:59:00,
2013-01-19 14:14:00,35.0,-99.9,30.37,SW,228,2.0,6.0,-999,-99.99,,,-99.99,,2013-01-19 23:14:00,
2013-01-19 14:29:00,35.0,-99.9,30.37,East,91,4.0,6.0,-999,-99.99,,,-99.99,,2013-01-19 23:29:00,
2013-01-19 14:35:00,35.0,-99.9,30.37,East,101,2.0,5.0,-999,-99.99,,,-99.99,,2013-01-19 23:35:00,
2013-01-19 14:52:00,35.0,-99.9,30.38,SSE,147,3.0,5.0,-999,-99.99,,,-99.99,,2013-01-19 23:52:00,
2013-01-19 15:08:00,35.0,-99.9,30.37,South,183,3.0,4.0,-999,-99.99,,,-99.99,,2013-01-20 00:08:00,
2013-01-19 15:17:00,34.0,-99.9,30.37,SSE,164,1.0,3.0,-999,-99.99,,,-99.99,,2013-01-20 00:17:00,
2013-01-19 15:26:00,34.0,-99.9,30.37,SE,143,1.0,2.0,-999,-99.99,,,-99.99,,2013-01-20 00:26:00,
2013-01-19 15:38:00,34.0,-99.9,30.37,SE,142,1.0,1.0,-999,-99.99,,,-99.99,,2013-01-20 00:38:00,
2013-01-19 15:48:00,33.0,-99.9,30.38,West,260,2.0,3.0,-999,-99.99,,,-99.99,,2013-01-20 00:48:00,
2013-01-19 15:58:00,32.0,-99.9,30.38,West,281,3.0,3.0,-999,-99.99,,,-99.99,,2013-01-20 00:58:00,
2013-01-19 16:05:00,33.0,-99.9,30.38,WSW,256,3.0,6.0,-999,-99.99,,,-99.99,,2013-01-20 01:05:00,
2013-01-19 16:22:00,-999.0,-99.9,30.38,NW,305,1.0,3.0,-999,-99.99,,,-99.99,,2013-01-20 01:22:00,
2013-01-19 16:28:00,-999.0,-99.9,30.38,SSE,152,0.0,2.0,-999,-99.99,,,-99.99,,2013-01-20 01:28:00,
2013-01-19 16:39:00,32.0,-99.9,30.38,East,93,1.0,2.0,-999,-99.99,,,-99.99,,2013-01-20 01:39:00,
2013-01-19 17:05:00,32.0,-99.9,30.38,ESE,118,0.0,1.0,-999,-99.99,,,-99.99,,2013-01-20 02:05:00,
2013-01-19 17:15:00,-999.0,-99.9,30.37,SW,224,1.0,2.0,-999,-99.99,,,-99.99,,2013-01-20 02:15:00,
2013-01-19 17:28:00,33.0,-99.9,30.37,South,174,3.0,5.0,-999,-99.99,,,-99.99,,2013-01-20 02:28:00,
2013-01-19 17:38:00,-999.0,-99.9,30.37,SE,134,1.0,3.0,-999,-99.99,,,-99.99,,2013-01-20 02:38:00,
2013-01-19 18:00:00,-999.0,-99.9,30.37,ESE,114,3.0,10.0,-999,-99.99,,,-99.99,,2013-01-20 03:00:00,
2013-01-19 18:09:00,33.0,-99.9,30.37,ENE,68,5.0,8.0,-999,-99.99,,,-99.99,,2013-01-20 03:09:00,
2013-01-19 18:15:00,-999.0,-99.9,30.37,SSE,168,0.0,3.0,-999,-99.99,,,-99.99,,2013-01-20 03:15:00,
2013-01-19 18:27:00,33.0,-99.9,30.37,NNW,329,2.0,9.0,-999,-99.99,,,-99.99,,2013-01-20 03:27:00,
2013-01-19 18:40:00,33.0,-99.9,30.37,SE,144,3.0,6.0,-999,-99.99,,,-99.99,,2013-01-20 03:40:00,
2013-01-19 18:58:00,33.0,-99.9,30.36,ENE,63,-999.0,4.0,-999,-99.99,,,-99.99,,2013-01-20 03:58:00,
2013-01-19 19:15:00,32.0,-99.9,30.37,West,274,1.0,2.0,-999,-99.99,,,-99.99,,2013-01-20 04:15:00,
2013-01-19 19:28:00,33.0,-99.9,30.37,NE,53,1.0,2.0,-999,-99.99,,,-99.99,,2013-01-20 04:28:00,
2013-01-19 19:38:00,32.0,-99.9,30.37,SSW,212,3.0,4.0,-999,-99.99,,,-99.99,,2013-01-20 04:38:00,
2013-01-19 19:45:00,-999.0,-99.9,30.37,WSW,242,3.0,7.0,-999,-99.99,,,-99.99,,2013-01-20 04:45:00,
2013-01-19 19:59:00,-999.0,-99.9,30.37,East,96,2.0,5.0,-999,-99.99,,,-99.99,,2013-01-20 04:59:00,
2013-01-19 20:04:00,-999.0,-99.9,30.37,WSW,239,1.0,4.0,-999,-99.99,,,-99.99,,2013-01-20 05:04:00,
2013-01-19 20:12:00,-999.0,-99.9,30.37,SSE,153,0.0,3.0,-999,-99.99,,,-99.99,,2013-01-20 05:12:00,
2013-01-19 20:23:00,31.0,-99.9,30.36,SE,132,-999.0,2.0,-999,-99.99,,,-99.99,,2013-01-20 05:23:00,
2013-01-19 20:33:00,-999.0,-99.9,30.36,SW,222,3.0,5.0,-999,-99.99,,,-99.99,,2013-01-20 05:33:00,
2013-01-19 20:43:00,-999.0,-99.9,30.35,South,176,1.0,2.0,-999,-99.99,,,-99.99,,2013-01-20 05:43:00,
2013-01-19 21:02:00,31.0,-99.9,30.35,SSW,204,1.0,1.0,-999,-99.99,,,-99.99,,2013-01-20 06:02:00,
2013-01-19 21:12:00,-999.0,-99.9,30.35,SW,227,1.0,2.0,-999,-99.99,,,-99.99,,2013-01-20 06:12:00,
2013-01-19 21:22:00,31.0,-99.9,30.36,WSW,247,0.0,2.0,-999,-99.99,,,-99.99,,2013-01-20 06:22:00,
2013-01-19 21:34:00,-999.0,-99.9,30.36,SW,216,2.0,4.0,-999,-99.99,,,-99.99,,2013-01-20 06:34:00,
2013-01-19 21:43:00,-999.0,-99.9,30.35,West,270,10.0,13.0,-999,-99.99,,,-99.99,,2013-01-20 06:43:00,
2013-01-19 21:53:00,31.0,-99.9,30.35,NW,306,3.0,10.0,-999,-99.99,,,-99.99,,2013-01-20 06:53:00,
2013-01-19 22:02:00,-999.0,-99.9,30.35,NW,307,2.0,7.0,-999,-99.99,,,-99.99,,2013-01-20 07:02:00,
2013-01-19 22:12:00,-999.0,-99.9,30.36,WNW,282,7.0,10.0,-999,-99.99,,,-99.99,,2013-01-20 07:12:00,
2013-01-19 22:22:00,-999.0,-99.9,30.36,West,265,3.0,4.0,-999,-99.99,,,-99.99,,2013-01-20 07:22:00,
2013-01-19 22:32:00,30.0,-99.9,30.36,WNW,284,3.0,6.0,-999,-99.99,,,-99.99,,2013-01-20 07:32:00,
2013-01-19 22:43:00,-999.0,-99.9,30.35,WNW,292,3.0,4.0,-999,-99.99,,,-99.99,,2013-01-20 07:43:00,
2013-01-19 22:52:00,30.0,-99.9,30.35,WNW,291,4.0,5.0,-999,-99.99,,,-99.99,,2013-01-20 07:52:00,
2013-01-19 23:02:00,-999.0,-99.9,30.36,NW,320,2.0,4.0,-999,-99.99,,,-99.99,,2013-01-20 08:02:00,
2013-01-19 23:12:00,-999.0,-99.9,30.35,WNW,286,1.0,2.0,-999,-99.99,,,-99.99,,2013-01-20 08:12:00,
2013-01-19 23:22:00,31.0,-99.9,30.36,SW,229,0.0,6.0,-999,-99.99,,,-99.99,,2013-01-20 08:22:00,
2013-01-19 23:32:00,-999.0,-99.9,30.35,SSE,164,1.0,2.0,-999,-99.99,,,-99.99,,2013-01-20 08:32:00,
2013-01-19 23:42:00,-999.0,-99.9,30.35,SSE,153,2.0,3.0,-999,-99.99,,,-99.99,,2013-01-20 08:42:00,
2013-01-19 23:53:00,-999.0,-99.9,30.35,ESE,121,2.0,4.0,-999,-99.99,,,-99.99,,2013-01-20 08:53:00,